O3B FM6 (40081 NORAD) Tracking and Keplerian Element Data

This shows tracking and keplerian element data for the satellite.

Feedback or suggestion? Click here.




ElementValue
Catalog40081
NameO3B FM6
Epoch Orbit19323
Epoch Day34.75180163
Epoch Year2025
RAAN1.0954
Inclination0.0447
Eccentricity0.0002819
Argument of Perigee316.505
Mean Anonmoly42.3732
Mean Motion5.00115479
Decay Rate-1.4E-07
L11 40081U 14038C 25034.75180163 -.00000014 00000+0 00000+0 0 9998
L22 40081 0.0447 1.0954 0002819 316.5050 42.3732 5.00115479193230



Live tracking and technical data element details for O3B FM6 (NORAD 40081). O3B FM6 can be tracked NOW for your location showing map with azimuth and elevation plus other details from your city location.







IsCatalogInMostPopularTable: catalog: 40081, numindb: 655
Update: records affected: 1



GetName: 40081 O3B FM6

Hit Count: updated at: Mon, 19 May 2025 02:47:23 GMT